Auxvasse, MO

10:39 AM CST on March 01, 2015 (GMT -0600)
Near Lakeview Lake | Change Station
CLOSE
Current Station
Personal Weather Station
Location: Mexico, MO
Elevation: 817 ft
Nearby Weather Stations
Active Advisory: Winter Weather Advisory Active Notice: Local Storm Report

Elev 817 ft 39.16 °N, 91.89 °W | Updated 0 second ago

Snow
Snow
27.3 °F
Feels Like 27 °F
N
0.0
Wind Variable Wind from NW
Gusts 0.0 mph

Today
High -- | Low -- °F
--% Chance of Precip.
Yesterday
High -- | Low -- °F
Precip. -- in
6:40 AM 6:00 PM
Waxing Gibbous, 86% visible
Pressure 30.38 in
Visibility 5.0 miles
Clouds Few 1800 ft
Scattered Clouds 3300 ft
Overcast 5500 ft
Windchill 27 °F
Dew Point 23 °F
Humidity 85%
Rainfall 0.00 in
Snow Depth Not available.
UV 1 out of 12
Pollen .60 out of 12
Air Quality Not available.
Flu Activity Not available.
SPECI KCOU 011619Z 31005KT 5SM BR FEW018 SCT033 OVC055 M03/M05 A3038 RMK AO2 UPB09E14SNE09 P0001 T10281050

More Conditions Fewer Conditions

Pressure 30.38 in
Visibility 5.0 miles
Clouds Few 1800 ft
Scattered Clouds 3300 ft
Overcast 5500 ft
Windchill 27 °F
Dew Point 23 °F
Humidity 85%
Rainfall 0.00 in
Snow Depth Not available.
UV 1 out of 12
Pollen .60 out of 12
Air Quality Not available.
Flu Activity Not available.
SPECI KCOU 011619Z 31005KT 5SM BR FEW018 SCT033 OVC055 M03/M05 A3038 RMK AO2 UPB09E14SNE09 P0001 T10281050

More Conditions Fewer Conditions

10-Day Weather Forecast

Almanac

Astronomy

Mar. 01, 2015 Rise Set
Actual Time
Civil Twilight
Nautical Twilight
Astronomical Twilight
Moon
Length of Visible Light
Length of Day
Tomorrow will be .
, % of the Moon is Illuminated

Today's Extremes

State Highs State Lows

Community

WunderPhotos

Upload Photos

1,801,451 photos uploaded!

WunderBlogs® & News

Nearby

Air Quality

  Air Quality AQ Index Pollutant
Not available.

Snow Depth

Station Depth Elevation

Earthquake Activity

City Distance Mag. Time & Date
Minimum magnitude displayed is 2.5.

Coastal Water Temperatures

Place Temperature

Nearby Weather Stations

Winter Weather Advisory
Statement as of 4:25 AM CST on March 01, 2015

... Winter Weather Advisory remains in effect until 6 PM CST this
evening...

* timing... snow will gradually diminish today.

* Accumulations... 2 to 6 inches of snow.

* Winds... west 5 mph or less.

* Impacts... the wintry precipitation will result in hazardous
travel conditions... especially on bridges... overpasses... and
untreated roads. Parking lots and sidewalks will become
slippery as well.

Precautionary/preparedness actions...

A Winter Weather Advisory means that less than 6 inches of snow is
expected across the advisory area. Slippery roads can be
expected... so motorists should plan for a slower than normal
trip. Be especially alert when approaching bridges... overpasses... and
curves.